Location: Unspecified
(38.9820°N, 94.4650°W)
Time: 21:09:50
(UTC-06:00)

Resurs 1-4 Rocket - Visible Passes

Search period start: 02 March 2015 00:00
Search period end: 12 March 2015 01:00
Orbit: 801 x 814 km, 98.4° (Epoch: 01 March)

Date Brightness Start Highest point End Pass type
(mag) Time Alt. Az. Time Alt. Az. Time Alt. Az.
02 Mar 5.0 02:47:15 10° NE 02:47:37 11° ENE 02:47:37 11° ENE visible
02 Mar 3.1 04:25:31 10° N 04:28:42 35° NNW 04:28:42 35° NNW visible
03 Mar 3.2 04:00:59 10° NNE 04:04:06 37° NNE 04:04:06 37° NNE visible
03 Mar 3.9 05:43:19 10° NW 05:45:12 12° WNW 05:45:12 12° WNW visible
04 Mar 3.7 03:36:39 10° NNE 03:39:30 30° NE 03:39:30 30° NE visible
04 Mar 3.5 05:17:28 10° NNW 05:20:36 20° NW 05:20:36 20° NW visible
05 Mar 4.3 03:12:38 10° NE 03:14:54 21° NE 03:14:54 21° NE visible
05 Mar 3.0 04:52:21 10° N 04:56:00 30° NW 04:56:00 30° NW visible
06 Mar 4.8 02:49:08 10° NE 02:50:17 14° ENE 02:50:17 14° ENE visible
06 Mar 2.7 04:27:34 10° N 04:31:23 43° NNW 04:31:23 43° NNW visible
07 Mar 2.8 04:03:00 10° NNE 04:06:47 48° NNE 04:06:47 48° NNE visible
07 Mar 3.9 05:45:37 10° NW 05:47:32 12° WNW 05:47:53 11° WNW visible
08 Mar 3.3 04:38:40 10° NNE 04:42:11 38° NE 04:42:11 38° NE visible
08 Mar 3.5 06:19:35 10° NNW 06:23:17 19° WNW 06:23:17 19° WNW visible
09 Mar 4.0 04:14:36 10° NE 04:17:34 25° ENE 04:17:34 25° ENE visible
09 Mar 2.9 05:54:26 10° N 05:58:40 31° WNW 05:58:40 31° WNW visible
10 Mar 4.6 03:51:01 10° NE 03:52:58 16° ENE 03:52:58 16° ENE visible
10 Mar 2.4 05:29:36 10° N 05:34:04 48° NW 05:34:04 48° NW visible
11 Mar 2.3 05:05:01 10° NNE 05:09:27 63° N 05:09:27 63° N visible
11 Mar 4.0 06:48:00 10° NW 06:49:30 11° WNW 06:50:33 10° WNW visible
